Temperature
17 17 17 17 17 17 17 17 17 18 18 18 18 17 17 17 17 17 17 17 17 17 17 17 17 17 17 17 17 16 16 16 16 16 16 16 16 16
17 17 17 17 17 17 17 17 17 17 18 18 17 17 17 17 17 17 17 17 17 17 17 17 17 16 16 16 16 16 16 16 16 16 16 16 16 16
17 17 17 17 17 17 17 17 17 17 17 17 17 17 16 16 16 16 16 16 16 16 16 16 16 16 16 16 16 16 16 16 16 15 15 15 15 15
17 17 17 17 17 17 17 17 17 17 16 16 16 16 16 16 16 16 16 16 16 16 16 16 16 16 16 16 16 16 16 15 15 15 15 15 15 15
16 16 16 16 16 17 16 16 16 16 16 16 16 16 16 16 16 16 15 15 15 16 16 16 16 16 16 16 16 16 16 15 15 15 15 15 15 15
16 16 16 16 16 16 16 16 16 16 16 16 16 16 16 15 15 15 15 15 15 15 15 15 15 15 15 15 15 15 15 15 15 15 15 15 15 15
16 16 16 16 16 16 16 16 16 16 16 16 16 16 15 15 15 15 15 15 15 15 15 15 15 15 15 15 15 15 15 15 15 15 14 14 14 14
16 16 16 16 16 16 16 16 15 15 15 15 15 15 15 15 15 15 14 14 14 15 14 14 14 14 14 14 15 15 15 14 14 14 14 14 14 14
15 15 16 15 15 15 15 15 15 15 15 15 15 14 14 15 14 14 14 14 14 14 14 14 14 14 14 14 14 14 14 14 14 14 14 14 13 13
15 15 15 15 15 15 14 14 14 14 14 14 14 14 14 14 14 14 14 13 14 14 14 13 14 14 14 14 14 14 14 14 14 13 13 13 13 13
14 14 14 14 14 14 14 14 14 14 14 14 14 14 14 14 14 13 13 13 14 14 14 13 13 13 13 13 13 13 13 13 13 13 13 12 12 12
14 14 14 14 14 14 14 13 13 13 13 13 13 13 13 13 13 13 13 13 13 13 13 13 13 13 13 13 13 12 12 12 12 12 12 12 12 11
14 14 14 14 14 14 14 13 13 13 13 13 13 13 13 13 13 12 12 12 12 13 13 12 12 12 12 12 12 12 12 12 12 12 11 11 11 11
14 14 14 13 13 13 13 13 13 13 13 13 13 13 13 13 12 12 12 12 12 12 12 12 11 11 11 11 11 11 11 11 11 11 11 11 11 11
13 13 13 13 13 13 13 13 12 12 12 12 12 12 12 12 12 12 11 11 11 11 11 11 11 11 11 11 11 11 11 11 11 11 11 10 10 10
12 12 12 12 12 12 12 12 12 12 12 12 12 12 12 12 12 12 11 11 11 11 11 11 10 10 10 10 10 10 10 10 10 10 10 10 10 10
12 12 12 12 12 12 12 11 11 11 11 11 11 12 12 12 12 11 11 11 11 11 11 10 10 10 10 10 10 10 10 10 10 10 9 10 10 10
12 11 11 11 11 11 11 11 11 11 11 11 11 11 11 11 11 11 11 11 11 10 10 10 10 10 10 10 10 9 10 10 10 9 9 9 10 10
11 11 11 11 11 11 11 11 11 11 10 10 10 10 11 11 11 10 10 10 10 10 10 10 9 9 9 10 10 9 9 9 9 9 9 9 9 9
11 10 10 10 10 10 10 10 10 10 10 10 10 10 10 10 10 10 10 10 10 10 9 9 9 9 9 9 9 9 9 9 9 9 9 9 9 9
10 10 10 10 10 10 9 9 9 9 9 9 9 9 9 9 9 9 9 9 9 9 9 9 9 9 8 8 8 9 9 8 8 8 8 8 8 8
10 10 9 9 9 9 9 9 9 9 9 9 9 9 9 9 9 9 9 9 9 9 9 9 8 8 8 8 8 8 8 8 8 8 8 8 8 8
9 9 9 9 9 9 9 9 9 9 8 8 8 8 8 8 8 8 8 8 8 8 8 8 8 8 8 8 8 8 8 8 8 8 8 8 8 8
Wind_Speed
8 9 8 7 7 7 6 6 6 7 6 5 4 3 3 3 3 5 5 4 6 7 7 8 8 8 9 9 9 9 9 10 11 11 11 11 11 11
7 7 8 7 6 6 6 6 7 7 7 5 4 4 3 5 4 5 6 6 8 8 8 8 9 9 9 10 9 9 9 9 10 10 10 10 10 10
7 7 8 8 6 6 6 6 6 7 8 7 5 4 5 6 5 6 7 7 6 9 9 9 9 9 9 9 9 9 9 9 9 10 10 10 10 10
7 7 7 6 7 7 6 7 6 6 8 8 6 5 6 6 6 7 6 6 6 7 10 9 9 9 10 10 10 10 9 9 9 9 10 10 10 10
7 7 7 7 7 6 6 7 7 7 7 8 8 5 6 5 5 6 6 5 7 6 9 10 10 10 11 11 11 10 10 10 10 10 10 10 10 10
6 6 7 7 7 7 6 7 7 6 7 7 7 6 5 5 5 6 6 5 6 6 5 6 8 11 12 12 12 11 10 10 10 10 10 10 10 10
6 6 6 6 5 6 6 6 6 6 6 6 6 6 5 4 5 5 6 6 6 5 5 6 6 6 8 11 11 10 10 10 10 10 10 10 10 10
6 6 6 6 5 5 4 5 6 7 7 7 6 6 6 6 5 6 6 5 6 4 5 6 5 6 5 6 6 8 9 10 10 10 10 10 10 10
5 5 5 3 4 4 5 6 6 7 8 8 8 7 6 5 6 7 6 7 7 5 5 7 5 5 5 4 6 8 9 9 10 10 10 10 10 9
6 5 5 5 4 3 4 5 5 5 6 7 6 6 6 4 5 7 7 7 7 5 5 6 5 5 4 4 6 7 8 9 9 9 9 9 9 9
6 6 6 6 3 3 5 5 5 5 4 4 4 5 4 4 5 5 5 5 6 5 4 5 5 5 5 5 4 7 8 9 10 10 10 10 9 9
5 5 5 5 4 4 6 6 6 5 5 4 5 6 6 5 6 6 6 6 6 5 3 4 5 4 5 4 3 3 4 6 8 9 10 11 10 8
5 5 4 6 6 6 7 7 6 5 6 6 5 5 4 4 4 4 4 5 6 6 4 4 5 5 5 5 5 4 4 4 5 6 9 11 12 10
5 5 3 5 7 7 6 4 4 5 6 5 5 4 4 4 3 3 4 5 5 6 5 4 5 5 5 6 6 4 4 4 4 5 5 7 10 13
5 1 1 4 6 6 7 7 6 6 5 5 5 5 4 3 3 3 4 4 5 5 4 4 5 5 6 6 6 5 5 5 4 5 5 5 6 6
4 3 5 6 6 5 4 6 6 5 5 6 6 5 4 3 3 3 3 3 4 4 3 4 5 5 6 7 6 6 5 5 5 5 5 6 6 7
2 3 4 4 4 4 4 4 4 5 5 5 5 5 4 4 4 3 3 3 4 4 4 3 4 4 5 6 6 6 6 6 5 4 5 6 6 6
3 4 4 4 5 4 4 4 4 4 4 4 4 4 4 4 4 3 3 4 5 5 4 4 3 4 4 5 4 6 6 6 6 5 6 6 6 6
3 3 3 3 3 3 3 3 3 2 2 3 4 4 4 4 4 4 4 4 5 4 4 4 4 4 5 6 5 4 6 6 6 5 5 6 7 7
2 2 2 2 2 2 2 2 2 2 2 3 3 4 4 4 4 4 4 4 4 4 4 4 4 4 5 7 7 6 5 5 5 5 5 5 5 5
1 1 2 2 2 1 2 2 2 2 2 2 3 3 3 4 4 4 4 3 4 5 5 4 3 4 5 5 6 6 5 4 5 6 6 5 6 6
1 2 2 2 2 2 2 2 2 2 2 2 3 3 3 3 4 4 4 4 4 4 5 4 4 4 4 5 6 6 6 5 4 5 6 6 5 6
2 2 2 2 2 2 2 2 3 2 2 3 3 3 3 3 4 4 4 4 4 5 5 5 4 4 4 5 6 5 6 6 5 4 3 3 6 7
Wind_Direction
234 231 238 243 244 248 248 250 259 268 264 247 245 245 251 259 241 251 256 216 222 232 240 244 243 243 246 246 245 242 238 234 235 238 239 241 241 240
238 240 241 244 246 244 242 243 248 258 269 265 258 268 280 274 240 252 250 221 222 224 233 240 243 244 245 243 240 237 234 232 232 234 238 241 243 244
240 239 239 244 242 239 241 246 251 256 262 267 261 253 253 264 261 256 249 246 233 208 219 233 238 241 243 241 238 235 233 231 230 233 237 240 243 245
238 242 244 241 238 243 243 246 248 249 254 264 266 257 250 249 253 258 259 254 256 205 210 225 232 237 239 238 237 236 233 232 233 235 237 238 241 243
238 239 243 244 245 247 248 249 250 248 246 253 257 258 259 252 254 257 259 260 263 233 212 218 225 231 233 233 234 236 234 233 235 237 238 236 238 241
236 238 243 243 244 244 246 249 252 254 250 253 257 255 258 256 254 263 265 258 268 268 255 245 229 226 227 226 227 228 230 232 234 237 238 236 235 237
235 238 240 241 249 251 257 250 249 251 253 253 254 254 256 258 256 261 267 272 266 262 264 256 241 240 230 222 221 225 231 233 234 236 238 236 234 235
239 237 231 223 218 222 246 261 266 257 260 261 258 258 256 257 260 265 269 271 273 259 266 268 262 258 249 240 206 214 227 232 234 236 237 238 237 235
241 240 245 230 224 235 223 228 250 259 263 267 267 270 268 266 263 262 262 265 271 271 267 270 261 261 261 248 192 211 222 228 233 234 235 236 236 234
241 238 239 238 241 245 250 250 252 253 251 254 262 268 274 278 261 261 265 258 259 250 250 271 271 272 280 270 192 199 214 222 226 228 230 230 232 234
237 234 233 232 211 245 246 251 255 256 238 234 260 265 274 269 272 269 263 261 268 266 242 267 279 286 281 261 214 193 208 218 223 225 224 224 227 231
233 227 219 219 201 233 240 244 247 253 258 243 239 240 244 235 225 249 266 266 275 277 266 274 281 288 284 264 257 246 237 224 222 223 222 221 220 233
240 237 216 174 201 228 247 248 249 257 254 253 251 247 246 242 236 237 258 267 273 280 291 278 282 282 279 282 278 267 261 257 246 240 229 223 222 230
246 246 216 179 207 219 234 238 243 251 250 253 258 259 257 258 255 258 260 263 272 282 290 283 280 278 279 283 287 283 277 273 264 259 253 234 229 232
249 272 201 201 218 222 217 218 225 241 249 254 259 262 263 261 258 248 245 242 254 269 278 271 273 278 274 277 283 288 289 281 270 271 266 256 249 242
242 213 201 215 235 253 224 216 231 242 251 255 257 255 256 254 248 255 262 268 279 283 269 268 269 273 274 281 282 283 282 280 274 270 272 267 254 242
254 238 233 229 232 232 236 240 243 240 240 248 256 260 257 256 262 269 272 272 274 280 285 275 271 271 275 281 280 279 281 279 279 277 273 270 261 250
247 237 238 243 249 248 245 246 247 247 251 256 256 258 261 267 271 272 270 269 272 275 282 285 283 279 283 283 265 276 282 284 283 274 268 270 270 267
233 243 243 245 251 254 248 248 256 261 268 264 264 265 262 261 262 265 266 269 275 285 294 290 284 282 284 288 287 261 281 286 284 280 277 276 277 280
254 258 261 263 266 269 268 261 257 249 256 267 270 271 269 265 262 263 266 275 284 290 293 294 295 291 286 289 296 297 266 277 280 277 278 281 287 291
274 279 287 292 286 266 259 263 263 255 258 265 268 272 274 271 271 273 277 273 273 280 286 292 298 279 280 282 285 295 303 276 272 275 274 274 282 280
310 297 295 294 277 260 248 252 262 255 246 254 267 272 278 281 280 282 285 286 281 281 287 295 298 285 279 277 282 292 300 303 281 266 259 258 269 270
299 299 286 267 262 255 250 242 248 253 256 264 268 271 272 273 277 279 282 286 291 295 296 298 300 289 277 275 279 287 294 298 300 297 293 236 224 241
Height
1535 1536 1536 1537 1537 1537 1538 1538 1539 1538 1537 1537 1537 1537 1536 1535 1534 1533 1532 1531 1531 1530 1530 1530 1529 1529 1528 1528 1528 1527 1527 1526 1526 1526 1526 1526 1527 1527
1531 1531 1531 1532 1533 1533 1533 1534 1534 1534 1533 1533 1533 1532 1531 1531 1530 1529 1528 1527 1526 1526 1525 1525 1524 1524 1524 1523 1523 1522 1522 1521 1521 1522 1522 1522 1522 1522
1526 1527 1527 1527 1528 1529 1529 1529 1530 1530 1529 1528 1529 1527 1526 1526 1525 1525 1524 1523 1522 1521 1520 1520 1519 1519 1519 1518 1518 1517 1517 1516 1516 1517 1517 1517 1517 1518
1522 1523 1523 1524 1524 1524 1524 1525 1525 1525 1525 1524 1524 1523 1522 1521 1521 1520 1520 1520 1518 1517 1516 1515 1515 1514 1514 1514 1513 1513 1513 1512 1512 1512 1512 1512 1512 1512
1518 1519 1519 1520 1520 1520 1520 1520 1520 1520 1520 1519 1519 1518 1518 1517 1516 1516 1516 1514 1514 1513 1511 1510 1510 1509 1509 1509 1508 1508 1508 1508 1508 1508 1507 1507 1507 1507
1514 1514 1515 1515 1515 1515 1515 1515 1515 1515 1515 1515 1514 1514 1513 1513 1512 1512 1511 1510 1509 1509 1507 1506 1505 1505 1504 1504 1503 1503 1503 1503 1503 1502 1502 1502 1502 1502
1510 1510 1510 1511 1510 1511 1511 1511 1511 1511 1511 1511 1510 1509 1509 1508 1508 1507 1507 1506 1505 1504 1503 1502 1501 1500 1500 1499 1498 1498 1498 1498 1497 1497 1497 1497 1497 1497
1505 1506 1506 1506 1506 1506 1506 1506 1507 1506 1507 1507 1506 1505 1504 1504 1503 1503 1503 1502 1501 1500 1499 1498 1497 1496 1495 1495 1494 1493 1493 1493 1492 1492 1492 1492 1492 1492
1501 1501 1502 1502 1502 1502 1502 1502 1502 1501 1502 1502 1502 1501 1500 1499 1499 1498 1497 1497 1496 1495 1495 1494 1493 1492 1491 1490 1489 1488 1488 1488 1487 1487 1487 1487 1487 1487
1497 1497 1497 1497 1498 1498 1498 1498 1497 1497 1497 1497 1497 1496 1496 1495 1494 1494 1493 1492 1491 1491 1490 1490 1489 1488 1487 1486 1484 1483 1483 1483 1482 1482 1481 1481 1481 1481
1492 1493 1493 1493 1493 1493 1493 1493 1493 1493 1493 1493 1493 1492 1491 1491 1490 1490 1489 1489 1488 1487 1486 1486 1484 1483 1482 1481 1481 1480 1479 1478 1477 1477 1477 1477 1477 1476
1488 1488 1488 1489 1489 1489 1489 1489 1489 1489 1490 1489 1489 1488 1487 1486 1485 1485 1485 1485 1484 1484 1482 1482 1481 1479 1479 1478 1477 1476 1475 1474 1473 1472 1472 1472 1472 1471
1484 1484 1485 1484 1484 1484 1485 1485 1485 1485 1485 1485 1485 1485 1484 1483 1482 1481 1481 1481 1480 1480 1479 1478 1477 1476 1475 1474 1473 1473 1471 1470 1469 1468 1468 1467 1467 1467
1480 1480 1480 1480 1480 1480 1480 1480 1481 1481 1481 1482 1482 1481 1481 1480 1479 1478 1477 1476 1476 1475 1474 1473 1473 1472 1471 1470 1469 1468 1467 1466 1465 1464 1464 1463 1462 1462
1476 1476 1475 1475 1475 1475 1475 1476 1476 1477 1477 1478 1478 1478 1477 1477 1475 1474 1473 1472 1472 1471 1470 1469 1469 1468 1468 1467 1465 1464 1463 1462 1462 1461 1460 1459 1458 1457
1471 1471 1471 1471 1471 1471 1471 1472 1472 1472 1473 1473 1474 1473 1473 1473 1472 1471 1470 1470 1469 1468 1467 1466 1465 1464 1463 1463 1462 1461 1460 1459 1458 1457 1455 1454 1454 1453
1467 1468 1468 1468 1468 1468 1468 1468 1469 1469 1469 1470 1470 1469 1469 1469 1468 1468 1467 1467 1466 1465 1464 1463 1462 1461 1460 1459 1458 1457 1456 1455 1454 1452 1451 1450 1449 1449
1464 1464 1464 1464 1464 1464 1464 1465 1465 1465 1465 1466 1466 1465 1465 1465 1465 1465 1464 1464 1462 1461 1460 1460 1459 1458 1457 1456 1455 1454 1453 1452 1450 1449 1447 1446 1445 1445
1461 1461 1460 1460 1460 1461 1461 1461 1461 1462 1462 1462 1462 1462 1462 1462 1462 1461 1461 1460 1459 1458 1457 1457 1456 1455 1453 1452 1451 1451 1449 1447 1446 1445 1444 1442 1441 1440
1458 1458 1458 1458 1458 1458 1458 1458 1458 1458 1459 1459 1459 1459 1459 1459 1458 1458 1457 1457 1456 1455 1454 1453 1453 1452 1451 1450 1448 1446 1445 1444 1442 1441 1440 1439 1437 1436
1457 1456 1456 1456 1456 1456 1455 1455 1456 1456 1455 1455 1456 1456 1455 1455 1455 1454 1453 1453 1452 1452 1451 1450 1449 1449 1448 1447 1445 1443 1442 1441 1439 1438 1436 1435 1433 1432
1456 1455 1455 1454 1454 1454 1453 1453 1453 1453 1453 1453 1453 1453 1452 1452 1452 1451 1450 1450 1449 1449 1448 1447 1446 1445 1445 1444 1442 1440 1439 1437 1436 1434 1433 1433 1431 1428
1455 1454 1454 1453 1453 1453 1452 1452 1451 1451 1451 1451 1451 1450 1449 1449 1449 1448 1447 1447 1446 1446 1445 1444 1443 1443 1442 1441 1439 1438 1436 1434 1433 1432 1430 1429 1428 1426